Vertical_Velocity
-2 -1 -2 -2 0 -1 -0 0 -1 -0 -0 0 0 0 1 1 -0 -0 -0 -1 -1 -0 -1 -1 -1 -0 -0 0 -1 -1 -0 1 1 0 1 0 1 -0 -0 0 1 0 0
-0 -1 -1 -2 -0 -0 -0 0 0 0 -0 1 1 1 0 1 1 1 1 -0 -0 -2 -2 -1 -0 -0 -0 -0 -0 0 0 0 -1 -0 0 1 0 1 1 1 1 1 0
-1 0 -0 -1 -0 -0 -0 0 1 1 0 1 0 -0 -0 0 0 1 2 1 1 0 1 -1 -3 -1 -1 -2 -1 -1 -1 -0 1 -1 -1 -0 0 -0 0 0 1 0 1
-1 0 0 -1 1 -0 -1 0 -0 -0 0 -1 -0 -0 -0 -1 -1 -1 -0 -1 -0 -0 1 -0 -0 -1 -1 -0 -1 -2 -1 -1 -1 -0 -0 -1 -1 0 -0 -0 0 0 0
-0 0 0 -1 -1 -1 -1 -0 0 0 -0 -0 0 -1 -1 -0 1 0 -1 -1 -2 -1 -2 -1 0 0 -0 -1 0 1 -1 -1 -1 -0 -0 0 -1 -1 -0 1 0 0 -0
-0 0 -0 0 -0 -0 -0 -0 0 -0 -0 -0 1 -1 1 -0 -2 -2 -1 -1 -1 -0 -0 -1 -0 -1 -0 -1 -1 -0 1 -0 -0 -1 -1 0 1 1 1 -1 -0 -1 1
-1 -0 -1 0 -0 -1 -1 -0 0 0 -0 0 -0 -1 -1 -1 -2 -2 -1 -0 -0 -0 -0 -0 -0 -1 -1 -1 -1 -0 -1 -1 -2 -0 0 0 2 1 -0 -0 -1 -1 -1
0 -0 -1 -0 -1 -0 -1 -1 -0 -0 -1 -0 -2 -2 -2 -2 -0 0 -1 0 -1 -0 -0 -0 -0 -0 0 -1 -1 -2 -2 -1 -1 -0 -1 -1 -0 0 1 1 1 0 0
0 -0 -0 0 -0 -0 -0 -1 -1 -0 -1 0 -2 0 -3 -1 -1 -2 -3 -2 -2 -1 -1 -2 -1 -2 -2 -1 -0 0 -1 -0 -0 -1 -1 -1 0 -1 -0 0 -1 -1 1
1 -1 -0 1 -0 0 -0 -0 -0 0 -1 -2 -1 -2 -1 -0 -1 -1 -0 -0 -2 -2 -2 -2 -2 -1 -1 -2 -2 -1 -0 -1 -1 0 1 -0 2 1 0 -1 -0 0 0
1 0 1 1 1 -0 -1 -0 -0 -1 -1 -2 -2 -4 -1 -2 -1 -2 -3 -1 -2 -1 -2 -2 -2 -2 -3 -2 -1 -1 -0 1 0 1 -0 1 1 2 1 -0 0 0 1
1 0 1 -0 1 1 1 -0 -0 -1 -1 -2 -2 -2 -2 -2 -0 -2 -2 -2 -2 -2 -2 -2 -1 -1 -2 -1 -0 -0 -1 -0 -0 -1 -1 -1 0 0 1 0 2 -1 0
1 0 0 1 1 -0 -0 -0 -1 -0 -2 -3 -0 -0 -1 -0 -2 -1 -1 1 -1 -1 -1 -0 -1 -0 -0 -1 -1 -1 0 0 1 1 -1 -2 0 0 -1 -1 -1 -0 2
0 1 0 1 1 1 -1 -1 -1 -2 -2 -3 -1 -2 -1 -1 -1 -0 -1 -1 -1 -1 1 1 -1 -1 -1 -1 -1 -2 -2 -1 -2 -1 1 2 1 1 1 1 0 1 -2
1 1 1 1 1 -0 -1 -1 -1 -1 -3 -0 -1 -2 1 -1 -1 -1 -1 -1 -1 -0 -0 -1 -1 -2 -2 -1 1 1 -0 -0 1 2 -1 0 -0 -1 -1 0 -1 -1 0
2 1 1 2 0 -1 -1 -1 -1 -3 -1 -3 -1 0 -1 -1 -2 -1 -1 -2 0 1 0 -2 -2 -2 -2 -1 -0 -0 0 -1 -2 -3 1 -1 1 1 0 1 1 0 1
2 2 2 0 -0 -1 -1 -1 -0 -3 -2 -0 0 -1 -0 -1 -2 -2 -3 -2 1 -2 -1 1 1 -0 -1 -0 -1 -4 -2 1 -0 -1 -1 -5 0 -4 -2 -5 -3 -2 -2
1 2 0 1 -1 0 -1 0 -2 -0 0 -1 0 -0 -2 -2 -3 -2 -2 1 -2 0 -1 -2 -1 -1 -1 -2 -1 1 1 1 1 0 1 -0 2 1 0 1 0 -0 -0
1 1 2 -0 -0 1 -1 -2 -1 0 -0 -1 -1 -2 -3 -2 -3 -4 -3 -3 -3 -3 -3 -4 -2 -3 -3 0 0 -2 -3 -4 -3 -4 -3 -3 -2 -1 -0 -1 1 1 2
-0 2 -1 -1 0 -3 -1 -0 0 -1 -2 -1 -3 -3 -2 -3 -3 -3 -4 -2 -2 -4 -3 -3 -2 -3 -4 -3 -2 -2 -2 -1 1 -0 0 -0 -1 -2 -2 -3 -4 -4 -5
1 -1 -1 -0 -1 -0 -0 -1 -2 -2 -1 -2 -2 -2 -3 -3 -3 -0 -5 -2 -2 -1 -2 -4 -2 -1 -2 -2 0 -2 -1 -1 -1 -0 -1 -2 -3 -2 -3 -1 -1 -1 -1
-2 -1 2 -1 -0 -2 -2 -3 -2 -1 -3 -2 -3 -3 -2 -3 -2 -2 -3 -2 -2 -3 -0 -1 -2 -1 0 -3 -2 -1 -2 5 0 -2 -1 -0 2 1 -0 3 0 -1 -1
-1 0 -0 -1 -1 -1 -1 -1 -1 -3 -2 -4 -1 -2 -2 -2 -1 -2 -1 -2 -1 -1 -0 -1 -3 -3 -2 -2 -3 -2 -2 -4 0 2 -0 1 -1 1 -0 -4 -2 0 1
-1 1 -1 -1 0 -1 0 -1 -1 -1 -3 -3 -0 -1 -0 -2 -1 -1 -0 -0 -1 0 0 0 -0 -1 -2 -2 0 -2 -3 0 -2 -4 -3 -4 1 0 2 0 -4 -4 1
-1 -0 -1 -0 0 -1 -0 -0 -1 -1 -3 -0 -0 -2 -2 -1 -0 0 0 1 1 -0 -2 1 1 1 1 0 -1 -2 0 -1 -1 0 -1 -5 -6 -0 -1 1 2 1 -1
-1 -2 -1 -1 -0 -0 1 0 -1 -2 0 -1 1 -2 -3 -1 1 1 -2 -1 -0 -2 -3 -3 -2 -2 -2 -2 -2 -2 -3 -2 -2 2 2 2 -1 -5 -4 -4 1 2 -3
Height
5899 5898 5898 5898 5897 5896 5896 5896 5896 5896 5896 5895 5895 5894 5893 5893 5892 5891 5890 5888 5887 5886 5885 5884 5882 5881 5880 5879 5878 5876 5875 5874 5873 5871 5870 5869 5868 5868 5867 5867 5866 5866 5865
5898 5898 5897 5897 5897 5896 5895 5895 5895 5895 5895 5895 5894 5894 5893 5892 5891 5890 5888 5887 5886 5884 5883 5882 5881 5879 5878 5877 5876 5875 5873 5872 5870 5869 5868 5867 5866 5865 5864 5864 5863 5863 5862
5897 5896 5896 5897 5896 5895 5895 5895 5895 5895 5895 5894 5894 5893 5892 5891 5890 5889 5887 5885 5884 5882 5881 5880 5879 5877 5876 5875 5873 5872 5871 5869 5868 5866 5865 5864 5863 5862 5861 5860 5860 5859 5859
5896 5895 5895 5896 5895 5895 5894 5894 5894 5894 5893 5893 5892 5891 5891 5890 5888 5887 5885 5884 5882 5880 5878 5877 5875 5874 5873 5871 5870 5868 5867 5866 5865 5863 5862 5861 5859 5858 5858 5857 5856 5855 5855
5894 5894 5893 5894 5894 5894 5894 5893 5893 5893 5892 5892 5891 5890 5889 5888 5886 5884 5882 5880 5878 5877 5875 5873 5871 5870 5868 5867 5866 5864 5863 5861 5860 5859 5858 5857 5856 5855 5853 5852 5851 5850 5850
5892 5891 5891 5892 5893 5893 5893 5893 5893 5892 5892 5891 5890 5889 5887 5885 5884 5881 5878 5876 5874 5873 5871 5869 5868 5866 5864 5862 5861 5859 5858 5856 5854 5853 5852 5851 5850 5849 5848 5847 5847 5846 5845
5889 5889 5890 5890 5891 5891 5891 5891 5891 5891 5890 5889 5888 5887 5885 5882 5880 5877 5875 5872 5871 5870 5868 5866 5864 5862 5861 5859 5857 5855 5853 5852 5850 5848 5847 5845 5844 5843 5842 5841 5840 5840 5840
5885 5886 5888 5888 5889 5890 5890 5890 5890 5889 5888 5887 5886 5884 5882 5879 5876 5874 5872 5870 5868 5867 5865 5864 5862 5860 5858 5856 5854 5851 5849 5848 5846 5844 5842 5840 5838 5837 5836 5834 5834 5833 5832
5882 5884 5885 5886 5887 5887 5888 5888 5887 5886 5885 5884 5883 5881 5878 5875 5873 5871 5870 5868 5866 5865 5863 5861 5859 5856 5854 5851 5850 5847 5845 5843 5841 5839 5838 5836 5834 5832 5831 5829 5828 5827 5826
5879 5881 5882 5883 5884 5885 5885 5885 5884 5884 5883 5882 5880 5878 5875 5872 5870 5868 5867 5865 5863 5862 5860 5857 5855 5852 5849 5847 5844 5842 5840 5837 5835 5833 5831 5829 5828 5826 5824 5823 5822 5821 5820
5875 5878 5879 5880 5882 5883 5883 5883 5882 5882 5881 5879 5877 5874 5872 5869 5867 5866 5864 5862 5860 5858 5855 5852 5849 5847 5844 5841 5838 5835 5833 5830 5827 5825 5824 5822 5820 5819 5817 5816 5815 5814 5814
5872 5874 5876 5878 5879 5880 5880 5880 5880 5879 5878 5876 5874 5871 5868 5866 5864 5862 5860 5858 5855 5852 5849 5846 5843 5840 5836 5833 5830 5827 5825 5822 5820 5817 5815 5813 5813 5811 5810 5809 5807 5806 5806
5869 5871 5873 5875 5876 5877 5878 5878 5877 5876 5874 5872 5870 5867 5864 5862 5860 5857 5855 5852 5849 5846 5843 5839 5836 5832 5828 5825 5821 5818 5815 5812 5810 5807 5805 5804 5803 5802 5801 5800 5799 5798 5797
5866 5868 5870 5872 5874 5875 5875 5875 5874 5872 5870 5868 5865 5862 5859 5857 5854 5852 5849 5846 5842 5838 5834 5830 5827 5823 5819 5815 5811 5807 5805 5802 5800 5798 5796 5795 5794 5793 5792 5791 5790 5790 5789
5862 5865 5867 5869 5871 5872 5872 5871 5870 5869 5866 5863 5861 5858 5855 5852 5848 5845 5842 5838 5834 5830 5825 5821 5817 5813 5809 5805 5801 5798 5795 5793 5792 5791 5789 5788 5787 5786 5785 5784 5783 5782 5781
5859 5862 5864 5866 5868 5868 5868 5867 5866 5864 5861 5858 5855 5852 5849 5845 5842 5838 5834 5829 5824 5819 5815 5811 5806 5803 5800 5797 5794 5792 5790 5788 5787 5786 5785 5783 5781 5780 5778 5777 5775 5774 5773
5856 5858 5861 5863 5864 5865 5864 5863 5861 5859 5856 5853 5849 5846 5843 5839 5834 5830 5825 5819 5814 5810 5806 5801 5798 5795 5792 5791 5789 5787 5786 5784 5783 5781 5778 5776 5775 5773 5771 5770 5769 5767 5765
5853 5856 5858 5859 5860 5860 5859 5857 5855 5853 5850 5847 5844 5840 5836 5831 5827 5821 5816 5809 5804 5801 5797 5792 5789 5786 5785 5786 5785 5783 5781 5779 5777 5775 5773 5772 5769 5767 5766 5764 5763 5761 5759
5850 5852 5854 5855 5855 5855 5853 5852 5850 5847 5844 5841 5837 5834 5829 5825 5819 5814 5807 5801 5799 5796 5792 5788 5785 5783 5782 5781 5780 5778 5776 5774 5772 5770 5768 5766 5764 5762 5761 5759 5757 5755 5753
5846 5848 5850 5851 5850 5849 5848 5846 5843 5841 5838 5834 5831 5827 5823 5818 5814 5808 5803 5797 5795 5792 5789 5786 5783 5781 5778 5776 5774 5772 5770 5769 5767 5765 5763 5761 5758 5756 5754 5752 5750 5747 5745
5842 5844 5845 5845 5844 5843 5842 5839 5837 5834 5830 5827 5824 5820 5816 5812 5808 5804 5800 5795 5791 5789 5786 5783 5779 5776 5774 5772 5770 5768 5766 5764 5762 5759 5757 5754 5752 5750 5747 5744 5742 5739 5737
5839 5839 5840 5839 5837 5837 5835 5832 5829 5826 5823 5820 5816 5812 5809 5805 5802 5798 5795 5791 5787 5784 5781 5778 5775 5772 5769 5766 5764 5762 5760 5758 5755 5752 5750 5747 5744 5742 5738 5735 5733 5730 5727
5832 5833 5833 5832 5831 5830 5828 5824 5821 5818 5815 5812 5808 5805 5802 5798 5795 5792 5788 5785 5782 5778 5775 5773 5770 5767 5764 5761 5758 5755 5753 5750 5746 5745 5742 5739 5736 5734 5731 5728 5725 5722 5719
5826 5827 5827 5826 5825 5822 5819 5816 5814 5810 5807 5803 5800 5797 5794 5790 5787 5785 5781 5779 5775 5771 5768 5766 5763 5760 5757 5754 5751 5748 5745 5742 5739 5736 5733 5729 5725 5722 5720 5717 5714 5711 5709
5820 5820 5819 5818 5817 5814 5811 5808 5805 5802 5798 5794 5791 5788 5785 5782 5779 5777 5773 5770 5767 5764 5761 5758 5755 5752 5748 5745 5742 5739 5736 5733 5729 5726 5722 5718 5714 5711 5708 5705 5702 5699 5695
5813 5812 5811 5810 5808 5805 5802 5799 5796 5793 5789 5786 5783 5779 5775 5773 5770 5767 5764 5762 5759 5756 5752 5749 5745 5742 5739 5736 5732 5729 5725 5722 5718 5714 5711 5707 5702 5699 5695 5692 5689 5686 5683